Regional Weather Roundup
Issued by NWS

Home | Current Version | Previous Version | Graphics & Text | Print | Product List | Glossary Off
Versions: 1 2 3 4 5 6 7 8 9 10 11 12 13 14 15 16 17 18 19 20 21 22 23 24 25 26 27 28 29 30 31 32 33 34 35 36 37 38 39 40 41 42 43 44 45 46 47 48 49 50

000
ASUS43 KDTX 190410
RWRMI
MICHIGAN HOURLY REGIONAL WEATHER ROUNDUP
NATIONAL WEATHER SERVICE DETROIT/PONTIAC MI
1100 PM EST THU DEC 18 2014

NOTE: "FAIR" INDICATES FEW OR NO CLOUDS BELOW 12,000 FEET WITH NO
SIGNIFICANT WEATHER AND/OR OBSTRUCTION TO VISIBILITY.

MIZ047>049-052>055-059>063-066>070-074>076-081>083-190500-
SOUTHEAST LOWER MICHIGAN

CITY           SKY/WX    TMP DP  RH WIND       PRES   REMARKS
ADRIAN         CLOUDY    29  26  89 NW7       30.20S WCI  22
ALMA           CLOUDY    27  22  82 NE6       30.22R WCI  21
ANN ARBOR      LGT SNOW  30  27  88 NW9       30.18R FOG     WCI  22
BAD AXE        CLOUDY    27  25  91 NW10      30.18R WCI  17
CARO           CLOUDY    26  22  83 W6        30.20S WCI  20
DETROIT CITY   CLOUDY    31  26  82 N7        30.19R WCI  24
DETROIT        FRZ DRZL  31  27  85 NW7       30.19R WCI  24
FLINT          CLOUDY    28  24  85 N8        30.20R WCI  20
GROSSE ILE     CLOUDY    30  28  93 NW3       30.18R
HILLSDALE      CLOUDY    28  28  99 W6        30.18R FOG     WCI  21
HOWELL         CLOUDY    28  27  97 CALM      30.18R FOG

CITY           SKY/WX    TMP DP  RH WIND       PRES   REMARKS
JACKSON        CLOUDY    28  26  92 W6        30.18S FOG     WCI  22
LAMBERTVILLE   CLOUDY    32  28  86 W6        30.20S WCI  26
LANSING        CLOUDY    28  26  92 N6        30.20R WCI  22
LAPEER         CLOUDY    25  22  89 N7        30.20R WCI  17
MASON          CLOUDY    29  27  93 N3        30.18S
MONROE         CLOUDY    30  28  93 W6        30.18S FOG     WCI  24
MT. CLEMENS    CLOUDY    28  27  99 N9        30.17R WCI  19
PONTIAC        FRZ DRZL  27  25  92 N8        30.17R WCI  19
PORT HOPE        N/A     29  22  75 N8        30.17R WCI  21
PORT HURON     CLOUDY    27  23  86 W6        30.19R WCI  20
TRI CITIES     CLOUDY    27  20  75 N6        30.22R WCI  20
TROY           CLOUDY    31  27  85 N7        30.20R WCI  24
SAGINAW HB     CLOUDY    28  23  80 N6        30.21S WCI  22
$$
MIZ043>046-050>051-056>058-064>065-071>073-077>080-190500-
SOUTHWEST LOWER MICHIGAN

CITY           SKY/WX    TMP DP  RH WIND       PRES   REMARKS
BATTLE CREEK   CLOUDY    29  25  85 SW8       30.19S FOG     WCI  21
BENTON HARBOR  CLOUDY    30  29  96 NW6       30.21S WCI  24
BIG RAPIDS     CLOUDY    26  22  87 N5        30.20R WCI  20
COLDWATER      CLOUDY    27  26  95 W6        30.20R FOG     WCI  20
FREMONT        CLOUDY    26  19  75 N3        30.22S
HOLLAND        CLOUDY    31  23  72 N7        30.22R WCI  24
GRAND RAPIDS   CLOUDY    29  23  78 N7        30.20R WCI  22
IONIA          CLOUDY    29  26  86 N6        30.19R WCI  23
KALAMAZOO      CLOUDY    28  24  85 SW8       30.20S FOG     WCI  20
LUDINGTON      CLEAR     18  15  89 CALM      30.24S
MARSHALL       CLOUDY    27  25  94 SW7       30.19R FOG     WCI  19
MOUNT PLEASANT CLOUDY    27  20  76 NE3       30.21R
MUSKEGON       CLOUDY    30  20  66 NE7       30.23S WCI  23
SOUTH HAVEN    CLOUDY    32  26  76 N6        30.21S WCI  27
$$
MIZ016>042-190500-
NORTHERN LOWER MICHIGAN

CITY           SKY/WX    TMP DP  RH WIND       PRES   REMARKS
ALPENA         CLEAR     16  12  84 CALM      30.21S
BEAVER ISLAND  CLEAR     14  12  95 CALM      30.24S
BELLAIRE       CLEAR     13  10  90 CALM      30.25S
CADILLAC       PTCLDY     8   5  87 CALM      30.18S
CHARLEVOIX     CLEAR     15  13  92 CALM      30.26S
FRANKFORT      CLEAR     14  13  96 CALM      30.24S
GAYLORD        PTCLDY     8   5  87 CALM      30.18S
GRAYLING       PTCLDY    16  14  94 CALM      30.20S
HARBOR SPRINGS PTCLDY    11   9  90 CALM      30.23S
HOUGHTON LAKE  CLOUDY    19  16  88 NE6       30.20R WCI  11
MANISTEE       CLEAR     14  10  85 CALM      30.24S
OSCODA         CLEAR     17  15  88 NW5       30.20S WCI  10
PELLSTON       PTCLDY     3  -1  83 CALM      30.24R
ROGERS CITY    PTCLDY    14  13  96 SW5       30.23R WCI   7
TRAVERSE CITY  CLEAR     17  14  88 CALM      30.24R
$$
MIZ007>008-015-190500-
EASTERN UPPER MICHIGAN

CITY           SKY/WX    TMP DP  RH WIND       PRES   REMARKS
KINROSS        PTCLDY    12   9  85 CALM      30.22S
MACKINAC ISLAN PTCLDY    21  15  76 NE10      30.22S WCI  10
NEWBERRY       PTCLDY    15  14  95 NW5       30.23R WCI   7
S. S. MARIE    PTCLDY    10   7  87 CALM      30.24F
MUNISING         N/A     17  12  80 S8        30.25S WCI   7
$$
MIZ004>006-011>014-085-190500-
CENTRAL UPPER MICHIGAN

CITY           SKY/WX    TMP DP  RH WIND       PRES   REMARKS
MANISTIQUE     PTCLDY    15  14  95 N6        30.25S WCI   7
ESCANABA       CLEAR     16  10  79 W3        30.26S
MENOMINEE      CLEAR     19  14  79 N5        30.26R WCI  13
SAWYER-GWINN   CLOUDY    13  11  90 NW3       30.23R
$$
MIZ001>003-009>011-084-190500-
WESTERN UPPER MICHIGAN

CITY           SKY/WX    TMP DP  RH WIND       PRES   REMARKS
IRON MOUNTAIN  PTCLDY     8   4  83 CALM      30.23S
HOUGHTON       CLEAR      7   5  91 NE3       30.24S
COPPER HARBOR    N/A     21  16  81 W6        30.27S WCI  13
IRONWOOD       CLOUDY    14  12  92 CALM      30.22S
$$

ABBREVIATIONS USED IN REMARKS
   TC - TEMPERATURE IN CELSIUS
  WCI - WIND CHILL INDEX
   HX - HEAT INDEX
  VSB - VISIBILITY



USA.gov is the U.S. government's official web portal to all federal, state and local government web resources and services.